Temp
-11 -10 -10 -11 -11 -10 -11 -11 -10 -10 -10 -10 -10 -9 -9 -9 -8 -8 -8 -7 -7 -7 -7 -6 -6 -6 -6 -6 -6 -6 -6 -6 -6 -6 -6 -6 -6 -6 -6 -6 -6 -5 -6 -6 -5 -5 -5 -5 -5 -5 -5 -5 -4 -4 -4 -4 -4 -4 -4 -4 -4 -4 -4
-12 -11 -11 -11 -11 -10 -11 -11 -10 -10 -10 -10 -10 -10 -9 -9 -9 -8 -8 -8 -7 -7 -7 -7 -6 -6 -6 -6 -6 -6 -6 -6 -6 -6 -6 -6 -6 -6 -6 -6 -5 -5 -6 -6 -5 -5 -5 -5 -5 -5 -5 -5 -4 -4 -4 -4 -4 -4 -4 -4 -4 -4 -4
-13 -12 -10 -10 -10 -10 -11 -11 -11 -11 -10 -10 -10 -10 -10 -9 -9 -8 -8 -8 -8 -7 -7 -7 -7 -6 -6 -6 -6 -6 -6 -6 -6 -6 -6 -6 -6 -6 -6 -6 -5 -5 -6 -6 -6 -5 -6 -5 -5 -5 -5 -5 -5 -5 -4 -4 -4 -4 -4 -4 -4 -4 -4
-13 -12 -11 -10 -10 -10 -11 -10 -10 -11 -11 -10 -10 -9 -9 -9 -9 -8 -8 -8 -8 -7 -7 -7 -7 -7 -6 -6 -6 -7 -6 -6 -6 -6 -6 -6 -6 -6 -6 -6 -6 -6 -6 -6 -6 -6 -6 -5 -5 -5 -5 -5 -5 -5 -4 -4 -4 -4 -4 -4 -4 -4 -4
-13 -12 -11 -11 -12 -11 -11 -10 -10 -11 -11 -10 -10 -10 -9 -9 -9 -9 -8 -8 -8 -8 -8 -8 -7 -7 -6 -6 -6 -7 -7 -6 -6 -6 -6 -6 -6 -6 -6 -6 -6 -6 -6 -6 -6 -6 -5 -5 -5 -5 -5 -5 -5 -5 -5 -5 -4 -5 -5 -5 -4 -4 -4
-13 -13 -12 -12 -12 -12 -11 -11 -11 -11 -11 -11 -11 -10 -10 -9 -9 -9 -9 -8 -8 -8 -8 -8 -7 -7 -7 -6 -6 -7 -7 -6 -6 -6 -6 -6 -6 -6 -6 -6 -6 -6 -6 -6 -6 -6 -5 -5 -5 -5 -5 -5 -6 -5 -5 -5 -5 -5 -5 -5 -5 -5 -5
-12 -12 -13 -12 -12 -12 -12 -12 -11 -11 -11 -11 -10 -10 -10 -10 -9 -9 -9 -9 -9 -8 -8 -8 -7 -7 -7 -7 -7 -7 -7 -6 -7 -7 -6 -6 -6 -6 -6 -6 -6 -6 -6 -6 -6 -6 -6 -6 -5 -5 -5 -5 -6 -5 -5 -5 -5 -5 -5 -5 -5 -5 -5
-11 -12 -12 -12 -12 -12 -12 -11 -11 -11 -11 -10 -10 -10 -10 -10 -9 -9 -9 -9 -9 -8 -8 -7 -7 -6 -7 -7 -7 -7 -7 -7 -7 -7 -7 -6 -6 -6 -5 -5 -5 -5 -5 -5 -5 -5 -5 -6 -6 -6 -6 -6 -6 -6 -6 -6 -6 -5 -5 -5 -5 -5 -5
-12 -12 -12 -12 -12 -12 -12 -11 -12 -12 -11 -11 -11 -10 -10 -10 -10 -9 -9 -9 -9 -8 -8 -8 -7 -6 -6 -7 -7 -7 -7 -7 -7 -7 -7 -7 -6 -6 -5 -5 -5 -5 -5 -5 -5 -5 -5 -5 -6 -6 -6 -6 -6 -6 -6 -6 -6 -6 -5 -5 -5 -5 -5
-12 -12 -12 -12 -12 -12 -12 -12 -12 -11 -11 -11 -11 -11 -11 -10 -10 -10 -10 -9 -9 -8 -8 -8 -7 -6 -6 -7 -7 -7 -7 -7 -7 -7 -6 -6 -6 -6 -6 -6 -6 -6 -6 -6 -5 -5 -6 -6 -6 -6 -6 -6 -6 -6 -6 -6 -6 -6 -6 -6 -6 -5 -5
-12 -12 -12 -12 -12 -12 -12 -12 -12 -11 -11 -11 -11 -11 -11 -11 -10 -10 -10 -9 -9 -9 -9 -8 -7 -7 -6 -6 -7 -7 -7 -7 -8 -7 -7 -6 -6 -6 -6 -6 -6 -6 -6 -6 -6 -6 -6 -6 -6 -6 -6 -6 -6 -6 -6 -6 -6 -6 -6 -6 -6 -5 -5
-12 -12 -12 -12 -12 -12 -13 -12 -12 -12 -11 -11 -11 -11 -11 -11 -10 -10 -10 -10 -9 -9 -9 -9 -8 -7 -7 -6 -6 -7 -7 -7 -7 -8 -7 -7 -6 -6 -6 -6 -6 -6 -6 -6 -6 -6 -6 -6 -6 -6 -6 -6 -6 -6 -6 -6 -6 -6 -6 -6 -6 -6 -5
-13 -13 -13 -13 -12 -12 -12 -12 -12 -11 -11 -11 -11 -11 -11 -11 -10 -10 -10 -10 -9 -8 -9 -9 -9 -8 -7 -7 -6 -7 -7 -7 -7 -8 -8 -7 -7 -7 -7 -7 -7 -7 -7 -6 -6 -6 -7 -7 -6 -6 -6 -6 -6 -6 -6 -5 -5 -5 -5 -6 -6 -6 -5
-13 -13 -13 -13 -12 -13 -12 -12 -12 -11 -11 -11 -11 -11 -11 -10 -10 -10 -10 -9 -9 -8 -8 -8 -9 -8 -8 -7 -7 -7 -7 -6 -7 -7 -7 -7 -7 -7 -7 -7 -7 -7 -7 -7 -6 -6 -6 -7 -6 -6 -6 -6 -6 -6 -6 -5 -5 -5 -5 -5 -6 -6 -6
-13 -13 -13 -13 -13 -13 -12 -12 -12 -11 -11 -11 -11 -11 -11 -10 -10 -10 -9 -9 -8 -8 -8 -8 -8 -8 -8 -7 -7 -7 -7 -6 -6 -7 -7 -7 -7 -6 -6 -7 -7 -7 -7 -7 -7 -6 -6 -7 -7 -7 -7 -7 -6 -6 -6 -5 -5 -5 -5 -6 -6 -6 -6
-13 -13 -13 -13 -13 -13 -13 -13 -12 -12 -12 -12 -12 -11 -11 -10 -10 -10 -10 -10 -9 -8 -8 -8 -8 -8 -8 -8 -7 -7 -7 -6 -6 -6 -7 -7 -7 -6 -6 -6 -7 -7 -7 -7 -7 -6 -6 -7 -7 -7 -7 -7 -7 -7 -6 -6 -5 -5 -6 -6 -6 -6 -6
-13 -13 -13 -13 -13 -13 -13 -13 -12 -12 -12 -12 -12 -11 -11 -11 -10 -10 -10 -10 -9 -8 -9 -9 -9 -8 -8 -8 -7 -7 -7 -7 -7 -6 -6 -7 -7 -7 -6 -6 -6 -7 -7 -7 -7 -7 -7 -7 -7 -7 -7 -7 -7 -7 -7 -6 -6 -6 -6 -6 -6 -6 -6
-13 -13 -13 -13 -13 -13 -13 -12 -12 -12 -12 -12 -12 -11 -11 -11 -11 -10 -10 -9 -9 -9 -9 -9 -9 -9 -8 -8 -9 -8 -8 -8 -8 -7 -7 -7 -8 -8 -7 -6 -6 -6 -7 -7 -7 -7 -7 -7 -7 -7 -7 -7 -7 -7 -7 -7 -6 -6 -6 -6 -6 -6 -6
-14 -13 -13 -13 -13 -13 -13 -13 -13 -12 -12 -12 -12 -11 -11 -11 -11 -10 -10 -10 -10 -10 -10 -10 -9 -9 -8 -8 -9 -9 -9 -9 -9 -8 -8 -8 -8 -8 -8 -7 -7 -7 -7 -7 -7 -7 -7 -8 -8 -7 -7 -6 -6 -7 -7 -7 -6 -6 -6 -6 -6 -6 -6
-14 -14 -13 -13 -13 -13 -13 -13 -13 -12 -12 -12 -12 -12 -11 -11 -11 -11 -10 -10 -10 -10 -10 -10 -9 -9 -9 -9 -9 -9 -9 -9 -9 -9 -9 -9 -9 -9 -8 -8 -8 -8 -8 -8 -8 -8 -8 -7 -7 -7 -7 -7 -6 -6 -7 -7 -6 -6 -6 -6 -6 -6 -6
-14 -14 -14 -13 -13 -13 -13 -13 -13 -13 -13 -12 -12 -12 -11 -11 -11 -11 -11 -10 -10 -10 -10 -10 -9 -9 -9 -9 -9 -9 -9 -9 -9 -9 -9 -9 -9 -9 -9 -9 -9 -8 -8 -8 -8 -8 -8 -8 -7 -7 -7 -7 -7 -7 -7 -7 -6 -6 -6 -6 -6 -6 -6
-14 -14 -14 -13 -13 -13 -13 -13 -13 -13 -13 -13 -12 -12 -12 -11 -11 -12 -11 -11 -10 -10 -10 -10 -10 -10 -10 -10 -10 -10 -10 -10 -9 -9 -9 -9 -9 -9 -9 -9 -9 -9 -9 -9 -9 -9 -9 -8 -8 -8 -8 -8 -7 -7 -7 -7 -7 -7 -7 -6 -6 -6 -6
-14 -14 -14 -14 -13 -13 -13 -13 -13 -13 -13 -13 -12 -12 -12 -12 -12 -11 -11 -11 -10 -10 -10 -10 -10 -10 -10 -10 -11 -10 -10 -10 -10 -9 -9 -10 -10 -9 -9 -9 -9 -9 -9 -9 -9 -9 -9 -9 -9 -8 -8 -8 -8 -8 -7 -7 -7 -7 -7 -7 -7 -6 -6
-14 -14 -14 -14 -14 -14 -14 -14 -14 -13 -13 -13 -13 -13 -12 -12 -12 -11 -11 -11 -10 -10 -10 -10 -10 -11 -11 -11 -11 -11 -11 -10 -10 -10 -10 -10 -10 -10 -10 -9 -9 -9 -9 -9 -9 -9 -9 -9 -8 -8 -8 -8 -8 -8 -8 -8 -8 -8 -7 -7 -7 -7 -7
-15 -15 -14 -14 -14 -14 -14 -14 -14 -13 -13 -13 -13 -13 -12 -12 -12 -11 -11 -11 -11 -11 -11 -11 -11 -11 -11 -10 -11 -11 -11 -11 -11 -10 -9 -9 -9 -10 -10 -9 -9 -9 -9 -9 -9 -9 -9 -9 -9 -8 -8 -8 -8 -8 -8 -8 -8 -8 -8 -8 -7 -7 -7
-15 -15 -15 -14 -14 -14 -14 -14 -14 -14 -13 -13 -13 -13 -12 -12 -12 -11 -11 -11 -11 -11 -12 -12 -12 -12 -11 -11 -11 -11 -11 -11 -11 -11 -10 -10 -9 -9 -10 -9 -9 -9 -9 -9 -9 -9 -9 -9 -9 -9 -8 -8 -8 -8 -8 -8 -8 -8 -8 -8 -8 -7 -7
-14 -15 -14 -14 -14 -14 -14 -14 -14 -14 -13 -13 -13 -13 -13 -12 -12 -12 -12 -12 -12 -12 -12 -12 -13 -13 -12 -11 -11 -11 -11 -11 -11 -11 -11 -10 -10 -10 -10 -10 -10 -9 -9 -9 -9 -9 -9 -9 -9 -9 -9 -8 -8 -8 -8 -8 -8 -8 -8 -8 -8 -8 -8
-14 -14 -14 -14 -14 -14 -14 -14 -14 -14 -14 -14 -13 -13 -13 -13 -13 -12 -12 -12 -12 -13 -13 -13 -13 -13 -13 -12 -12 -12 -12 -12 -12 -11 -11 -11 -11 -10 -10 -10 -10 -10 -10 -10 -9 -9 -9 -9 -9 -9 -9 -9 -9 -8 -8 -8 -8 -8 -8 -8 -8 -8 -8
-14 -15 -15 -14 -14 -14 -14 -14 -14 -14 -14 -14 -13 -13 -13 -13 -13 -13 -13 -13 -13 -13 -13 -13 -13 -13 -13 -12 -12 -12 -12 -12 -12 -12 -12 -12 -11 -11 -11 -11 -10 -10 -10 -10 -10 -10 -10 -10 -9 -9 -9 -9 -9 -9 -9 -8 -8 -8 -9 -9 -9 -8 -8
-15 -15 -15 -15 -14 -14 -14 -14 -14 -14 -14 -14 -14 -13 -13 -13 -13 -13 -13 -13 -13 -13 -13 -13 -13 -13 -13 -13 -13 -13 -13 -13 -13 -12 -12 -12 -12 -12 -11 -11 -11 -11 -11 -11 -11 -11 -10 -10 -10 -10 -10 -10 -10 -9 -9 -9 -9 -9 -9 -9 -9 -9 -9
-15 -15 -15 -15 -15 -15 -14 -14 -14 -14 -14 -14 -14 -14 -14 -14 -14 -13 -13 -13 -13 -13 -13 -13 -13 -13 -13 -13 -13 -13 -13 -13 -13 -13 -13 -12 -12 -12 -12 -11 -11 -11 -11 -11 -11 -11 -11 -11 -10 -10 -10 -10 -10 -9 -9 -9 -9 -9 -9 -9 -9 -9 -9
-15 -15 -15 -15 -15 -15 -15 -14 -14 -14 -14 -14 -14 -14 -14 -14 -14 -14 -14 -14 -14 -14 -14 -13 -13 -13 -13 -13 -13 -13 -13 -13 -13 -13 -13 -13 -12 -12 -12 -12 -11 -11 -11 -11 -11 -11 -11 -11 -11 -10 -10 -10 -10 -9 -9 -9 -9 -9 -9 -9 -9 -9 -9
-15 -15 -15 -15 -15 -15 -15 -15 -15 -15 -15 -15 -14 -14 -14 -14 -14 -14 -14 -14 -14 -14 -14 -14 -14 -14 -14 -13 -13 -13 -13 -13 -13 -13 -13 -13 -13 -13 -12 -12 -12 -11 -11 -11 -11 -11 -11 -11 -11 -11 -11 -11 -10 -10 -10 -10 -10 -9 -9 -9 -9 -9 -10
-15 -15 -15 -15 -15 -15 -15 -15 -15 -15 -15 -15 -15 -15 -15 -14 -15 -14 -14 -14 -14 -14 -14 -14 -14 -14 -14 -14 -14 -13 -13 -13 -13 -13 -13 -13 -13 -13 -13 -13 -12 -12 -12 -12 -11 -11 -11 -11 -11 -11 -11 -11 -11 -11 -10 -10 -10 -10 -9 -9 -10 -10 -10
-15 -15 -15 -15 -15 -15 -15 -15 -15 -15 -15 -15 -15 -15 -15 -15 -15 -15 -15 -14 -14 -14 -14 -14 -14 -14 -14 -14 -14 -14 -14 -13 -13 -13 -13 -13 -13 -13 -13 -13 -13 -13 -12 -12 -12 -12 -12 -11 -11 -11 -11 -11 -11 -11 -11 -11 -10 -10 -10 -10 -10 -10 -10
-15 -15 -15 -15 -15 -15 -15 -15 -15 -15 -15 -15 -15 -15 -15 -15 -15 -15 -15 -15 -15 -15 -15 -15 -14 -14 -15 -14 -14 -14 -14 -14 -14 -14 -14 -14 -14 -14 -13 -13 -13 -13 -13 -13 -13 -12 -12 -12 -12 -11 -11 -11 -11 -11 -11 -11 -11 -11 -11 -10 -10 -10 -10
-15 -15 -15 -15 -15 -15 -15 -15 -15 -15 -15 -15 -15 -15 -15 -15 -15 -15 -15 -15 -15 -15 -15 -15 -15 -15 -15 -15 -15 -15 -14 -14 -14 -15 -14 -14 -14 -14 -14 -14 -13 -13 -13 -13 -13 -13 -13 -13 -12 -12 -12 -12 -12 -11 -11 -11 -11 -11 -11 -11 -11 -11 -11
Height
5834 5838 5844 5846 5849 5855 5856 5854 5856 5858 5863 5867 5869 5871 5873 5874 5875 5878 5878 5875 5876 5879 5879 5880 5882 5884 5886 5886 5887 5888 5890 5892 5893 5894 5895 5896 5898 5900 5901 5903 5904 5906 5908 5910 5912 5914 5915 5916 5917 5919 5921 5922 5924 5925 5926 5927 5929 5930 5932 5933 5934 5936 5937
5834 5835 5840 5843 5846 5851 5854 5856 5858 5858 5860 5863 5866 5869 5872 5873 5875 5877 5879 5877 5875 5877 5878 5879 5881 5883 5884 5885 5886 5887 5889 5891 5892 5893 5895 5896 5898 5899 5900 5901 5902 5904 5906 5908 5910 5912 5913 5914 5915 5917 5919 5920 5922 5924 5925 5926 5927 5929 5930 5931 5933 5934 5936
5836 5834 5836 5840 5843 5847 5850 5853 5857 5858 5859 5861 5862 5865 5869 5872 5875 5877 5880 5878 5874 5874 5876 5877 5879 5880 5882 5884 5884 5886 5888 5891 5892 5893 5894 5895 5897 5898 5898 5899 5901 5903 5904 5906 5908 5910 5911 5912 5913 5915 5917 5919 5921 5922 5923 5925 5926 5927 5928 5930 5931 5933 5934
5835 5833 5834 5838 5842 5845 5848 5850 5853 5855 5859 5861 5862 5864 5866 5870 5872 5875 5879 5878 5874 5873 5875 5877 5879 5879 5879 5881 5884 5885 5887 5890 5891 5892 5893 5894 5895 5896 5897 5898 5899 5901 5902 5904 5906 5908 5909 5910 5912 5914 5916 5918 5919 5920 5921 5923 5924 5925 5927 5928 5930 5931 5932
5832 5833 5834 5837 5841 5845 5847 5849 5851 5855 5859 5861 5861 5863 5865 5867 5869 5871 5875 5875 5873 5873 5874 5875 5877 5878 5876 5878 5882 5884 5886 5888 5889 5890 5891 5892 5894 5895 5896 5896 5897 5899 5901 5902 5903 5905 5907 5909 5911 5913 5915 5916 5917 5918 5920 5921 5922 5924 5925 5926 5928 5929 5931
5828 5832 5833 5833 5838 5844 5847 5849 5850 5853 5857 5859 5860 5863 5864 5865 5867 5869 5871 5871 5870 5871 5872 5872 5873 5874 5874 5876 5879 5882 5884 5885 5886 5888 5889 5890 5892 5893 5894 5895 5895 5897 5899 5900 5901 5902 5904 5907 5910 5912 5913 5914 5915 5916 5918 5919 5921 5922 5923 5924 5926 5928 5929
5822 5826 5828 5830 5835 5841 5845 5847 5848 5851 5855 5858 5861 5863 5865 5865 5866 5867 5869 5868 5866 5866 5870 5871 5869 5870 5872 5874 5876 5879 5882 5883 5884 5886 5888 5888 5890 5891 5892 5892 5893 5895 5896 5897 5899 5900 5901 5904 5907 5909 5910 5912 5913 5914 5916 5918 5919 5920 5921 5923 5924 5926 5927
5821 5823 5826 5828 5832 5839 5844 5847 5849 5850 5853 5857 5860 5863 5864 5865 5866 5868 5869 5868 5863 5862 5867 5869 5867 5867 5870 5872 5874 5877 5879 5880 5881 5883 5885 5887 5888 5889 5889 5889 5890 5891 5893 5895 5897 5898 5900 5902 5904 5906 5909 5910 5912 5914 5915 5916 5917 5918 5919 5921 5923 5924 5925
5821 5822 5825 5827 5830 5836 5841 5844 5847 5849 5851 5853 5857 5859 5861 5861 5864 5867 5867 5864 5861 5859 5862 5864 5863 5863 5865 5867 5870 5873 5875 5878 5879 5881 5883 5885 5886 5886 5887 5888 5889 5890 5892 5893 5895 5896 5898 5900 5902 5905 5907 5908 5910 5912 5913 5914 5915 5916 5917 5919 5921 5922 5923
5819 5820 5822 5824 5826 5830 5835 5840 5845 5849 5850 5851 5853 5855 5857 5857 5860 5863 5860 5857 5857 5857 5857 5858 5859 5859 5860 5864 5868 5871 5873 5875 5877 5880 5881 5881 5883 5884 5885 5887 5889 5890 5891 5893 5894 5895 5897 5899 5901 5902 5904 5905 5907 5909 5910 5911 5912 5914 5915 5916 5918 5920 5921
5817 5818 5820 5822 5824 5828 5833 5837 5842 5844 5845 5846 5847 5850 5853 5854 5857 5858 5855 5853 5855 5856 5855 5856 5858 5858 5858 5862 5867 5871 5872 5873 5875 5878 5879 5879 5879 5881 5883 5885 5887 5888 5889 5891 5893 5895 5896 5898 5899 5900 5901 5903 5904 5906 5908 5909 5909 5910 5911 5912 5915 5918 5919
5816 5818 5819 5820 5822 5824 5827 5830 5832 5833 5836 5840 5842 5845 5848 5849 5852 5854 5852 5850 5851 5852 5853 5855 5857 5858 5859 5861 5864 5868 5871 5873 5873 5875 5877 5878 5878 5879 5880 5883 5884 5886 5887 5889 5891 5892 5894 5895 5897 5898 5899 5900 5902 5903 5905 5906 5906 5908 5909 5911 5913 5915 5917
5814 5816 5818 5819 5820 5821 5823 5825 5827 5828 5832 5835 5838 5841 5843 5844 5846 5848 5848 5847 5847 5848 5851 5854 5856 5857 5859 5860 5860 5863 5868 5871 5872 5873 5875 5876 5877 5878 5879 5880 5882 5884 5885 5887 5889 5890 5890 5891 5893 5895 5896 5897 5899 5900 5901 5903 5904 5906 5907 5908 5910 5912 5914
5810 5813 5816 5818 5819 5820 5821 5823 5825 5826 5828 5831 5834 5837 5838 5839 5841 5843 5844 5844 5845 5846 5850 5853 5855 5856 5857 5858 5858 5860 5865 5867 5868 5871 5873 5874 5875 5876 5876 5877 5879 5881 5883 5885 5886 5887 5888 5889 5890 5892 5893 5894 5896 5897 5899 5900 5901 5903 5903 5904 5907 5910 5912
5809 5811 5813 5816 5818 5818 5819 5820 5822 5824 5827 5830 5832 5834 5834 5836 5838 5840 5842 5842 5843 5845 5848 5851 5853 5854 5855 5856 5856 5858 5862 5863 5864 5866 5870 5873 5873 5872 5873 5874 5876 5878 5880 5882 5884 5884 5885 5887 5889 5890 5891 5893 5894 5895 5897 5898 5899 5900 5900 5902 5904 5907 5909
5807 5809 5811 5814 5815 5816 5817 5819 5820 5822 5824 5827 5829 5829 5830 5834 5835 5838 5841 5840 5840 5843 5845 5847 5849 5850 5851 5854 5856 5857 5859 5861 5861 5862 5865 5868 5868 5868 5870 5871 5873 5875 5877 5878 5880 5882 5884 5885 5886 5888 5889 5890 5892 5893 5895 5896 5897 5897 5898 5900 5902 5904 5906
5805 5807 5809 5811 5812 5813 5815 5816 5817 5819 5821 5823 5824 5824 5827 5830 5832 5834 5836 5836 5836 5839 5842 5843 5844 5846 5848 5851 5853 5854 5855 5857 5857 5858 5860 5861 5861 5864 5866 5868 5871 5874 5875 5875 5876 5878 5880 5882 5883 5884 5885 5887 5889 5891 5893 5894 5895 5895 5896 5897 5899 5900 5902
5804 5805 5806 5808 5810 5811 5812 5813 5815 5816 5818 5820 5820 5821 5824 5826 5828 5830 5831 5832 5833 5835 5837 5839 5841 5842 5844 5846 5848 5851 5852 5853 5852 5852 5853 5854 5856 5859 5862 5865 5869 5871 5871 5872 5874 5876 5878 5880 5881 5882 5883 5884 5885 5887 5890 5892 5893 5893 5894 5895 5896 5897 5899
5802 5803 5805 5807 5808 5809 5810 5811 5813 5814 5815 5817 5817 5818 5820 5822 5824 5826 5826 5828 5830 5831 5833 5836 5837 5838 5840 5842 5845 5848 5849 5849 5849 5848 5849 5851 5854 5856 5858 5861 5864 5865 5866 5868 5871 5874 5876 5878 5880 5881 5881 5881 5882 5884 5887 5889 5890 5891 5892 5892 5893 5894 5896
5800 5801 5803 5805 5805 5806 5807 5808 5810 5811 5813 5814 5814 5815 5817 5818 5820 5822 5823 5824 5827 5829 5830 5832 5834 5835 5837 5838 5840 5843 5843 5844 5845 5846 5847 5849 5851 5853 5855 5857 5859 5860 5862 5864 5866 5868 5871 5873 5875 5876 5877 5879 5880 5882 5883 5886 5888 5888 5888 5889 5891 5892 5893
5799 5800 5801 5802 5804 5805 5805 5806 5807 5809 5811 5812 5813 5814 5814 5815 5818 5820 5821 5822 5824 5827 5828 5830 5831 5832 5834 5835 5836 5837 5838 5839 5841 5843 5845 5847 5849 5851 5853 5854 5855 5856 5858 5860 5861 5863 5866 5868 5869 5871 5873 5875 5877 5879 5881 5883 5885 5885 5885 5886 5888 5889 5890
5798 5798 5799 5800 5801 5802 5802 5803 5804 5806 5807 5808 5810 5812 5811 5812 5815 5817 5818 5819 5821 5824 5826 5827 5828 5828 5829 5831 5832 5832 5833 5835 5837 5840 5842 5844 5847 5849 5850 5850 5852 5853 5855 5857 5858 5860 5862 5864 5865 5867 5869 5871 5873 5875 5877 5878 5880 5882 5883 5883 5884 5885 5887
5796 5797 5798 5798 5798 5799 5800 5801 5802 5802 5803 5805 5808 5808 5807 5808 5811 5813 5815 5816 5818 5821 5822 5823 5824 5824 5823 5826 5828 5829 5830 5831 5834 5837 5839 5841 5843 5845 5845 5847 5848 5850 5851 5853 5855 5857 5859 5860 5861 5863 5865 5867 5869 5871 5873 5874 5875 5877 5879 5880 5881 5882 5883
5795 5796 5796 5795 5795 5796 5798 5799 5799 5800 5802 5803 5805 5804 5804 5805 5808 5810 5812 5814 5815 5816 5818 5820 5821 5819 5819 5821 5823 5825 5826 5828 5830 5833 5835 5837 5838 5839 5840 5841 5843 5845 5848 5850 5851 5853 5854 5856 5857 5859 5860 5862 5865 5867 5868 5869 5871 5872 5874 5876 5878 5879 5880
5794 5795 5794 5793 5794 5795 5796 5796 5798 5799 5800 5800 5800 5801 5802 5803 5805 5806 5808 5809 5809 5809 5811 5812 5813 5814 5815 5817 5819 5821 5823 5824 5825 5828 5831 5833 5834 5835 5836 5837 5839 5841 5844 5845 5847 5849 5850 5852 5854 5855 5857 5858 5860 5862 5863 5864 5866 5867 5869 5871 5873 5875 5876
5793 5793 5792 5791 5792 5794 5794 5795 5796 5797 5798 5797 5797 5798 5800 5801 5801 5802 5804 5804 5804 5804 5805 5805 5806 5809 5811 5813 5814 5816 5819 5821 5822 5824 5826 5829 5831 5832 5833 5834 5835 5837 5839 5840 5842 5844 5846 5848 5849 5851 5853 5854 5856 5858 5859 5860 5861 5863 5864 5866 5868 5870 5872
5791 5791 5790 5789 5790 5792 5793 5793 5794 5794 5795 5795 5795 5797 5798 5798 5798 5799 5800 5800 5799 5798 5799 5801 5803 5805 5807 5808 5810 5811 5814 5816 5818 5819 5821 5824 5826 5827 5829 5830 5831 5833 5834 5836 5837 5839 5841 5842 5844 5847 5849 5850 5852 5853 5854 5856 5857 5858 5860 5861 5863 5865 5867
5789 5789 5789 5789 5789 5790 5791 5791 5791 5792 5793 5793 5793 5794 5795 5795 5795 5795 5796 5796 5795 5794 5795 5797 5799 5802 5803 5805 5806 5807 5809 5812 5814 5815 5817 5819 5821 5823 5824 5825 5826 5828 5829 5831 5832 5834 5835 5837 5839 5841 5843 5845 5846 5848 5849 5851 5852 5854 5855 5856 5858 5860 5862
5787 5787 5787 5787 5788 5788 5789 5789 5789 5790 5790 5791 5791 5792 5792 5792 5792 5792 5792 5792 5792 5792 5792 5793 5795 5798 5800 5801 5802 5803 5805 5807 5808 5810 5812 5814 5816 5818 5819 5820 5822 5823 5824 5825 5827 5828 5829 5831 5833 5835 5837 5839 5841 5843 5844 5846 5847 5848 5850 5851 5853 5854 5856
5785 5785 5786 5786 5786 5786 5787 5787 5787 5787 5788 5789 5789 5789 5789 5789 5789 5789 5789 5789 5789 5789 5790 5791 5792 5794 5796 5796 5798 5799 5800 5801 5803 5804 5806 5808 5811 5813 5815 5816 5817 5818 5819 5820 5822 5823 5824 5825 5827 5829 5832 5834 5835 5837 5839 5840 5842 5844 5845 5846 5847 5848 5850
5783 5783 5784 5784 5784 5784 5784 5785 5784 5785 5785 5786 5787 5787 5787 5787 5786 5786 5786 5786 5786 5787 5788 5789 5789 5790 5791 5792 5793 5795 5796 5797 5799 5800 5802 5803 5805 5807 5809 5811 5812 5813 5813 5815 5816 5818 5819 5820 5821 5823 5826 5827 5829 5832 5833 5835 5837 5839 5840 5841 5842 5843 5845
5780 5781 5781 5782 5782 5782 5782 5782 5782 5782 5782 5783 5784 5784 5784 5784 5784 5783 5782 5783 5783 5784 5785 5785 5785 5786 5788 5789 5790 5791 5792 5794 5796 5796 5797 5799 5801 5802 5804 5805 5807 5808 5808 5809 5811 5812 5814 5815 5816 5818 5820 5821 5823 5825 5827 5829 5832 5833 5834 5835 5837 5838 5840
5778 5779 5780 5780 5780 5780 5780 5781 5780 5780 5780 5781 5781 5782 5782 5782 5781 5780 5779 5780 5781 5781 5782 5782 5782 5782 5783 5785 5786 5787 5788 5790 5792 5793 5794 5795 5796 5797 5798 5800 5801 5802 5803 5804 5805 5806 5808 5809 5811 5813 5815 5816 5817 5819 5821 5823 5825 5827 5828 5828 5829 5831 5833
5777 5778 5778 5778 5778 5778 5779 5779 5779 5778 5778 5778 5778 5779 5779 5779 5778 5778 5777 5777 5778 5778 5778 5779 5779 5779 5779 5781 5781 5782 5784 5785 5787 5789 5790 5791 5791 5793 5794 5794 5795 5797 5798 5799 5799 5800 5801 5803 5805 5806 5808 5811 5812 5813 5814 5817 5819 5820 5821 5823 5824 5825 5827
5776 5776 5776 5776 5776 5776 5777 5776 5776 5775 5776 5776 5776 5776 5777 5776 5776 5776 5775 5775 5775 5775 5775 5775 5776 5776 5776 5777 5778 5779 5780 5781 5782 5783 5784 5785 5786 5787 5788 5789 5790 5791 5792 5793 5794 5795 5796 5797 5798 5799 5801 5804 5806 5808 5809 5811 5813 5814 5815 5817 5818 5819 5821
5774 5774 5774 5773 5774 5774 5774 5774 5774 5773 5773 5774 5774 5774 5774 5774 5774 5774 5773 5773 5772 5772 5772 5773 5774 5773 5773 5774 5775 5776 5776 5777 5777 5777 5778 5780 5780 5781 5783 5784 5785 5786 5787 5788 5789 5790 5791 5792 5793 5794 5795 5797 5800 5802 5804 5805 5807 5808 5810 5811 5811 5812 5814
5771 5771 5771 5771 5771 5771 5771 5771 5771 5771 5771 5771 5772 5771 5771 5771 5771 5771 5770 5770 5770 5770 5769 5770 5770 5770 5770 5771 5771 5772 5773 5773 5773 5773 5774 5775 5775 5776 5777 5778 5780 5781 5782 5783 5784 5785 5786 5786 5788 5789 5790 5791 5793 5796 5797 5799 5800 5802 5804 5805 5806 5807 5809
Wind_Speed
20 22 26 32 26 17 12 18 22 24 19 14 14 16 16 16 17 17 16 19 20 21 23 23 20 16 15 15 11 11 14 16 18 19 19 20 20 19 20 21 22 22 25 26 24 23 21 21 22 22 23 23 23 22 21 19 18 17 16 16 15 15 14
12 17 27 36 33 24 16 8 14 20 23 20 15 15 15 14 15 13 12 17 20 19 21 24 23 18 15 15 13 13 15 15 16 18 18 18 19 19 18 21 21 21 25 28 26 24 23 23 22 22 23 23 24 24 23 22 20 19 19 18 17 16 16
10 16 25 34 35 31 25 16 11 16 21 24 24 21 17 14 14 12 12 18 21 21 19 20 22 21 19 19 18 19 20 19 17 17 18 17 17 17 17 18 18 18 21 26 27 26 25 26 24 23 22 22 23 24 24 23 23 22 21 20 19 18 18
12 18 21 26 28 30 30 26 19 14 14 19 23 25 21 15 13 13 12 17 22 23 20 17 18 20 20 21 22 22 21 21 20 19 18 17 15 16 16 15 16 16 18 23 27 28 28 28 26 24 22 21 22 22 23 23 23 23 23 22 21 21 20
12 14 15 18 19 23 28 29 21 12 13 18 19 22 24 20 17 13 12 17 22 23 20 17 16 19 23 23 22 20 19 21 22 19 19 18 15 15 15 14 15 16 17 19 23 28 31 30 27 25 23 22 22 21 20 20 20 21 21 21 22 22 22
13 12 13 14 18 18 23 29 26 18 15 18 16 14 18 21 21 18 13 14 22 22 19 19 19 20 21 20 19 17 18 22 20 17 18 18 16 15 14 14 15 16 18 18 19 23 29 31 29 26 24 22 21 20 19 19 18 18 20 20 21 21 22
18 19 19 17 19 17 19 25 28 23 16 12 15 15 14 17 20 20 16 14 23 22 18 19 22 24 19 15 16 16 18 22 20 15 16 17 16 16 15 15 15 17 19 19 18 20 24 29 29 27 26 24 22 20 19 19 18 17 18 19 19 19 20
17 18 21 20 18 13 16 19 21 24 21 16 15 17 16 13 13 15 15 20 27 26 21 20 22 26 22 16 17 17 18 22 21 16 16 16 17 18 19 20 19 19 20 21 20 20 22 25 26 26 25 25 23 21 20 21 20 18 17 17 17 18 19
16 15 21 23 21 18 23 23 19 20 22 23 20 18 19 18 16 16 16 22 29 31 30 26 23 23 20 16 18 19 18 20 21 19 17 16 18 20 21 20 20 19 19 20 21 21 21 23 24 24 24 24 24 23 23 23 22 20 18 18 18 18 19
20 17 21 23 21 22 25 22 16 13 16 22 22 19 20 19 19 22 23 25 29 31 32 31 27 23 19 17 18 19 18 19 20 20 20 20 21 22 20 17 16 16 16 18 20 21 21 22 22 22 22 23 24 25 25 25 24 22 20 20 21 20 20
26 19 19 21 21 21 19 18 18 18 22 28 29 25 25 23 19 23 29 31 31 30 30 32 32 26 21 19 19 19 18 19 19 19 21 24 24 22 21 18 15 16 16 17 19 20 20 20 20 20 20 22 23 24 26 27 27 25 23 23 24 23 22
31 24 17 17 21 23 21 24 29 29 29 35 37 32 30 30 26 26 31 34 35 34 29 29 33 30 25 24 24 22 19 19 21 20 19 22 25 23 21 19 17 16 15 16 18 20 20 21 21 21 21 21 21 20 21 25 28 28 27 28 28 27 25
29 27 21 17 19 24 24 27 34 34 30 35 41 37 34 35 33 30 34 38 39 37 30 26 29 31 29 28 28 27 23 20 22 20 17 19 24 24 21 20 19 17 17 17 18 18 20 22 24 25 24 22 21 20 20 22 25 28 30 32 32 30 27
29 29 28 23 20 22 23 25 31 34 32 34 39 37 37 39 38 36 38 39 40 40 36 31 27 28 30 31 31 30 27 25 24 20 16 16 22 25 25 24 22 20 18 18 19 17 18 21 24 25 24 22 20 19 19 21 22 23 28 33 35 32 29
29 29 31 29 23 23 23 23 27 30 29 30 32 35 37 38 39 39 37 37 38 38 38 38 34 30 29 30 33 33 30 31 31 27 20 16 19 25 27 25 25 24 19 17 20 20 17 17 21 22 20 19 19 18 17 19 20 19 22 29 33 32 30
26 27 29 29 26 25 23 20 22 24 24 23 27 34 37 36 38 39 35 35 38 36 34 37 39 38 34 31 32 35 34 34 35 35 31 22 18 24 26 21 21 25 22 18 20 22 18 14 17 20 18 16 16 16 17 17 16 14 16 23 29 32 32
24 25 25 24 24 24 24 22 21 22 22 21 23 30 34 34 36 39 38 39 42 40 35 35 37 40 40 35 33 36 38 38 37 40 40 31 23 24 29 27 22 23 25 22 20 21 22 20 18 19 20 18 15 15 16 15 13 12 15 19 23 28 32
20 24 25 24 24 24 24 24 24 23 23 23 23 26 31 32 31 35 39 41 42 42 39 36 35 37 39 38 35 34 36 37 38 40 41 38 31 28 30 33 30 25 24 22 18 16 19 21 20 18 18 19 18 16 15 14 13 13 14 16 19 22 25
18 23 25 26 27 26 25 24 24 25 25 24 24 26 31 32 29 29 35 38 39 39 39 37 36 36 38 38 36 34 36 38 37 37 38 38 36 34 33 34 35 31 26 23 22 20 16 16 16 15 14 17 21 21 19 18 18 17 15 16 17 18 19
18 21 23 25 26 27 27 26 26 26 25 25 26 26 29 32 29 27 31 35 35 36 36 37 37 37 38 39 37 36 39 41 39 39 40 39 37 37 38 37 38 38 35 32 33 32 28 25 25 23 22 23 26 26 24 22 21 21 21 20 18 18 18
15 18 21 24 26 27 27 28 27 27 27 28 29 28 29 32 30 27 30 33 34 34 34 36 37 35 36 39 41 38 37 38 38 38 40 41 40 39 40 40 40 40 41 40 39 38 37 36 34 32 29 28 28 28 27 26 25 24 24 24 22 21 20
13 15 18 21 24 25 26 27 27 28 29 30 30 31 34 35 32 28 29 31 33 34 35 35 35 31 28 31 36 38 36 35 37 39 39 40 41 40 40 41 42 42 42 42 41 40 39 38 37 36 33 32 31 31 30 30 29 27 26 26 25 24 23
13 14 16 18 20 23 24 23 24 26 28 29 30 31 34 36 34 32 31 31 32 35 38 39 37 34 29 25 27 32 35 35 35 37 38 38 38 38 39 40 42 43 43 43 42 42 41 41 40 39 38 36 34 33 33 32 31 30 29 28 26 24 24
12 12 14 17 18 20 22 22 23 25 25 26 26 28 31 34 34 33 33 33 33 34 37 41 42 42 40 36 32 32 35 38 39 37 37 38 38 38 40 41 42 43 44 44 44 43 43 44 43 42 41 39 37 35 34 34 33 32 31 30 28 26 26
11 10 14 18 18 17 18 21 22 22 22 23 24 26 29 31 32 32 32 34 36 35 33 35 40 43 44 44 42 38 35 37 41 41 40 40 40 40 41 42 43 44 44 44 44 44 44 44 44 43 42 41 39 37 36 35 35 34 33 32 31 30 29
11 11 15 20 19 16 16 19 20 20 21 24 26 26 27 28 30 32 33 34 39 39 33 29 32 36 39 41 41 39 35 34 36 40 41 41 41 41 41 41 42 43 43 43 43 43 43 43 42 42 42 41 41 39 38 37 36 35 34 34 33 32 32
13 14 16 18 16 14 14 16 18 18 20 23 25 25 26 27 28 31 33 36 39 41 38 34 30 30 33 37 37 37 37 36 35 36 37 38 39 41 41 40 41 41 42 42 42 42 42 42 42 41 41 42 42 41 39 39 38 37 36 35 34 33 33
15 16 17 16 14 12 12 13 15 16 18 20 22 23 25 27 28 30 32 35 38 40 40 39 35 31 30 34 37 38 38 37 37 37 37 37 38 39 40 40 40 40 41 40 41 41 42 42 42 42 41 41 41 41 41 41 40 39 37 37 36 35 34
16 16 16 16 15 14 14 13 14 15 16 17 19 20 23 26 28 30 31 33 36 38 38 38 37 35 32 33 37 39 38 38 38 39 39 39 39 40 40 41 41 41 41 40 40 41 42 42 42 41 41 42 41 41 42 42 42 41 39 38 38 37 37
16 17 17 18 18 17 16 15 15 15 15 16 17 18 19 22 25 28 30 31 33 35 37 36 35 34 32 32 34 37 37 38 40 41 41 41 41 41 42 43 43 43 43 42 41 41 43 44 43 42 40 40 41 41 42 43 43 40 39 38 38 38 39
16 18 18 18 18 18 18 18 17 16 16 16 17 17 18 20 22 24 26 29 30 32 34 36 37 35 32 31 32 34 34 34 36 39 41 41 41 41 41 43 45 45 45 45 44 42 41 42 44 44 42 41 42 42 43 44 43 42 41 41 40 40 39
16 17 17 16 16 17 18 18 19 18 18 18 18 19 19 20 21 23 24 25 26 27 29 32 35 37 37 35 34 34 35 33 32 34 37 39 40 41 41 42 44 45 46 48 48 48 44 41 41 43 42 42 44 46 47 46 45 44 44 44 44 43 41
16 16 15 14 15 16 16 18 19 19 18 18 19 20 21 21 22 23 24 24 24 24 26 27 29 31 34 36 36 35 36 36 34 33 34 36 38 39 41 42 44 46 47 47 49 50 49 46 44 43 41 38 39 44 48 48 46 46 47 47 46 45 44
16 16 15 15 15 15 15 16 17 17 16 17 18 20 21 22 23 24 24 25 25 25 25 25 25 26 28 30 33 34 36 37 37 36 36 36 37 37 37 39 41 44 46 48 48 48 49 49 48 47 45 41 38 39 44 46 45 45 48 50 49 45 43
18 17 17 17 17 16 16 17 17 16 16 16 18 19 20 21 23 24 25 26 27 27 27 26 25 26 26 26 27 30 32 36 38 38 38 38 39 38 37 37 38 39 40 43 46 47 48 48 48 49 48 45 43 41 41 42 44 43 43 47 51 51 46
18 18 18 19 18 18 17 18 18 18 18 19 20 21 21 21 22 23 25 26 27 28 29 28 28 28 28 27 27 28 28 31 34 35 36 38 40 40 40 40 40 39 38 39 41 43 45 46 47 48 48 46 47 48 47 46 46 44 40 40 45 48 47
20 19 20 20 20 20 20 20 20 20 20 21 22 22 23 23 23 24 25 26 26 27 28 29 29 29 29 29 30 30 29 30 31 31 33 35 38 39 41 42 43 43 42 41 40 40 41 42 43 45 46 45 44 46 49 50 49 48 46 43 42 41 42
Wind_Direction
233 221 197 191 191 189 226 253 237 222 213 204 211 215 209 214 223 220 232 257 255 242 246 249 247 247 240 240 251 239 224 225 225 219 214 211 210 212 213 218 226 229 229 229 229 230 231 233 232 229 226 224 225 227 228 228 228 230 232 232 232 232 230
225 218 199 202 207 196 191 242 262 240 222 209 207 219 226 232 235 223 224 254 266 259 250 247 245 246 241 238 243 239 231 231 227 217 213 214 213 214 216 220 226 230 227 225 225 226 227 229 229 227 226 225 226 229 230 230 230 231 233 234 235 235 234
212 229 210 207 214 207 185 177 215 232 230 225 216 209 213 225 231 230 234 251 260 257 251 246 244 245 243 239 241 245 241 237 233 223 216 217 219 218 219 221 224 227 225 222 223 225 225 227 228 227 225 226 227 229 230 231 232 233 234 236 237 238 237
218 244 225 208 213 212 195 186 194 204 219 234 234 224 214 206 212 226 243 254 258 257 255 249 241 242 244 238 234 239 241 238 236 232 222 218 220 222 221 222 223 223 223 222 223 226 226 226 226 225 224 226 227 229 230 230 231 234 236 237 239 241 241
211 238 227 205 204 213 207 196 187 185 205 219 229 235 230 215 201 206 226 246 255 262 267 263 246 240 244 241 233 232 237 236 233 230 225 218 217 220 221 224 224 222 222 223 225 226 226 227 226 224 225 227 228 228 230 231 231 232 236 238 239 240 242
178 206 226 206 188 202 214 205 194 186 201 215 214 222 241 236 217 200 203 249 262 260 266 271 257 244 247 247 240 232 226 228 227 224 225 223 219 221 223 226 226 224 223 223 225 224 222 224 225 224 224 226 228 229 232 233 231 232 234 236 238 239 240
172 193 212 198 180 193 212 213 212 205 196 214 224 219 231 243 233 215 208 248 264 253 254 266 254 243 247 249 240 229 220 226 231 227 226 227 224 223 225 226 224 224 223 222 224 224 219 219 221 222 222 224 227 231 235 235 234 234 232 230 233 235 236
184 190 199 184 165 185 212 215 224 222 206 202 221 227 226 230 241 243 243 257 261 253 254 264 251 240 244 244 237 231 226 230 235 234 229 229 230 228 227 226 223 222 223 221 222 224 222 220 219 220 222 225 230 233 235 235 235 236 233 229 232 233 233
192 185 189 174 161 188 210 208 214 226 219 207 207 216 225 226 220 222 240 255 255 253 255 259 255 249 246 239 236 237 233 230 232 237 235 226 225 228 229 231 230 228 227 225 222 220 221 222 222 222 225 229 232 234 234 233 233 235 235 233 235 234 231
204 195 189 178 176 192 196 189 194 223 227 218 219 220 226 231 215 208 223 236 239 245 251 251 253 259 256 242 236 235 234 233 232 235 236 226 220 223 227 230 233 231 230 232 230 222 217 217 217 219 225 230 232 234 234 232 230 233 235 236 239 237 232
217 212 198 190 190 188 182 179 195 218 216 210 215 217 217 220 213 214 225 227 226 237 246 246 246 251 253 248 241 232 229 234 232 229 233 231 225 224 225 225 229 231 229 228 224 219 218 218 217 217 220 225 231 235 236 235 233 233 234 237 239 238 233
221 220 213 204 194 186 185 191 199 211 211 205 208 207 206 210 208 214 227 230 231 236 239 243 243 241 244 247 244 234 228 231 228 224 232 234 227 224 222 219 222 228 229 223 214 213 218 221 222 222 220 220 226 232 236 237 235 233 234 236 238 238 235
222 223 223 221 208 196 193 191 196 206 205 202 207 206 205 206 202 206 220 227 231 232 230 235 240 239 239 243 243 238 232 232 229 229 237 233 224 221 219 215 214 217 222 224 219 216 218 219 222 226 227 224 227 233 238 241 241 240 238 236 235 237 236
220 222 222 224 221 212 205 196 201 210 207 201 205 208 211 212 207 208 217 224 228 230 231 231 231 234 237 238 242 243 239 239 239 237 237 227 220 223 223 220 217 214 215 221 224 224 226 226 226 227 230 231 233 240 247 252 254 254 246 236 232 233 236
223 223 220 220 224 224 217 206 205 213 215 213 214 216 218 219 216 217 222 227 230 233 236 236 232 234 237 235 237 241 241 241 242 241 240 231 223 223 224 224 221 218 220 227 230 232 232 230 227 225 230 236 238 244 255 260 263 261 248 235 231 232 235
224 225 221 219 225 230 226 217 211 211 215 220 223 224 223 221 222 224 226 230 232 232 236 238 235 235 237 237 236 238 240 240 239 239 241 242 233 222 222 227 224 219 224 235 238 234 230 231 233 229 229 235 241 248 256 262 266 263 247 236 233 234 236
220 222 222 220 224 231 231 228 222 216 215 219 223 224 224 222 225 227 226 229 233 233 234 237 237 236 236 237 238 236 237 238 237 236 237 241 244 234 230 236 236 226 228 237 243 238 232 237 247 242 235 232 235 244 251 257 262 260 251 244 240 239 237
222 224 224 222 224 229 232 231 229 226 222 223 227 226 223 225 229 230 228 227 230 233 234 236 237 238 237 238 239 237 235 238 238 236 235 237 243 244 240 240 241 239 236 236 238 236 231 234 242 243 238 233 232 237 244 248 253 257 256 254 251 247 244
223 226 227 227 227 229 232 230 228 228 225 225 230 229 223 224 230 232 230 228 228 231 235 236 237 239 239 239 241 240 237 238 238 236 235 236 238 240 242 240 239 241 242 238 235 234 233 233 236 238 242 245 245 247 249 250 253 257 259 257 254 252 251
222 223 226 229 228 230 234 235 230 230 230 228 229 230 228 226 230 235 233 230 228 229 233 235 234 235 239 241 242 241 236 235 235 234 234 235 236 236 238 239 240 241 242 242 242 243 243 245 249 253 253 252 252 254 256 257 258 259 259 256 253 251 249
226 221 223 228 230 232 237 239 236 235 238 237 233 234 236 234 234 240 239 234 230 227 230 233 234 235 240 241 239 238 235 232 231 231 232 234 236 236 236 238 240 241 243 245 247 248 248 249 252 255 253 251 251 253 255 256 255 257 258 257 256 255 250
234 226 224 227 230 233 237 240 239 237 238 239 238 240 242 241 241 244 244 240 235 230 229 230 231 233 235 235 233 233 234 235 233 231 232 234 236 237 239 239 240 242 244 246 248 251 252 253 254 254 253 252 250 251 252 252 252 253 255 256 257 257 254
238 234 232 230 229 233 238 242 242 240 238 238 240 243 244 244 245 246 245 243 239 236 234 231 229 230 233 239 242 238 235 234 233 231 232 235 236 238 240 241 242 243 244 245 248 250 252 254 255 256 256 256 255 254 255 255 255 254 253 254 255 255 255
240 236 235 234 234 236 241 245 245 243 242 242 244 246 245 244 245 245 244 243 241 242 243 239 237 240 244 248 254 253 247 242 237 233 232 234 236 238 240 241 241 242 243 245 247 249 251 252 254 256 258 258 258 257 257 256 256 255 254 254 254 253 253
245 243 240 242 247 251 251 249 246 245 245 244 245 246 245 244 243 242 242 243 242 243 248 247 245 247 249 250 251 253 254 249 244 239 238 237 238 240 242 243 243 243 244 245 246 248 250 252 253 255 257 258 258 257 257 257 256 256 254 253 253 253 253
242 247 248 249 253 258 258 252 249 248 246 244 244 245 245 245 245 241 240 242 243 244 248 251 251 248 247 247 247 247 248 250 249 246 244 243 244 245 246 247 247 246 246 247 248 249 249 251 252 253 254 255 256 256 256 256 255 255 254 254 252 252 253
238 241 246 251 255 257 252 248 249 251 250 246 246 246 245 247 247 245 243 244 245 245 246 249 253 252 246 243 243 243 244 247 248 248 246 246 245 245 245 247 247 247 247 247 247 248 249 249 250 251 251 252 253 254 254 255 255 254 254 253 252 251 250
247 247 250 257 264 267 260 252 251 253 253 251 250 248 247 247 248 248 248 246 247 248 249 249 251 253 250 245 244 244 244 244 244 245 246 246 245 244 244 244 244 246 247 246 246 248 249 249 249 249 248 249 249 250 251 252 252 253 252 251 250 248 247
253 255 256 257 262 267 267 264 261 258 257 256 254 253 252 251 250 251 251 250 249 249 251 253 253 254 255 252 247 247 247 245 243 243 243 244 244 243 244 244 244 245 247 246 246 247 248 249 249 249 248 246 246 246 247 248 248 249 249 249 248 245 245
255 258 258 258 260 261 260 260 260 259 258 257 255 255 255 255 254 254 253 254 254 252 252 254 254 254 258 258 251 247 247 247 246 245 244 244 243 242 242 243 243 244 245 245 245 246 247 247 246 247 247 246 245 244 245 246 245 244 243 243 244 244 243
257 257 257 258 261 262 259 255 254 253 254 254 253 253 254 255 257 258 256 256 257 256 255 254 253 253 257 261 256 248 246 248 249 247 246 245 244 243 242 242 242 243 245 245 245 246 248 246 243 242 243 245 245 243 243 243 242 240 239 240 241 244 244
261 261 261 259 261 264 263 260 256 254 253 255 255 255 255 255 257 260 261 261 261 260 259 259 259 257 258 261 260 254 250 251 252 250 248 246 246 245 244 243 242 243 245 247 247 248 249 248 243 240 240 243 246 244 242 242 241 240 239 240 241 243 243
264 266 270 272 270 270 271 270 266 261 258 258 259 258 259 259 259 260 262 264 265 265 265 265 265 263 261 261 262 260 255 255 257 257 253 250 248 248 247 245 244 244 246 248 249 249 250 250 247 243 241 243 245 242 238 239 242 242 241 240 240 240 240
268 270 272 273 272 272 274 274 272 267 262 261 260 261 261 261 262 264 265 266 266 267 268 268 268 268 266 263 262 261 259 258 260 260 256 253 251 250 250 249 247 246 247 250 251 252 252 253 252 251 249 248 246 241 236 235 238 242 244 243 239 236 237
273 276 275 273 271 271 272 273 273 273 272 269 267 266 264 263 263 264 264 265 266 267 269 271 271 272 271 268 266 264 262 260 260 259 257 255 253 252 252 252 251 250 250 252 253 254 255 255 255 257 257 254 251 247 242 238 238 242 248 247 240 235 235
277 279 279 277 275 274 274 274 276 278 278 277 274 272 271 268 266 265 265 265 267 268 270 272 273 274 274 272 270 267 264 262 262 261 259 257 256 255 253 252 253 253 255 256 257 257 257 257 256 257 259 258 255 253 252 250 248 249 252 251 243 236 233
277 277 277 276 276 277 276 276 276 277 278 278 277 276 275 272 269 267 267 267 267 268 270 272 272 272 273 273 272 269 267 265 266 266 264 262 260 259 257 255 254 255 256 259 260 260 261 261 259 257 257 258 257 256 255 256 255 254 254 254 251 244 236